Regional Weather Roundup
Issued by NWS

Home | Current Version | Previous Version | Graphics & Text | Print | Product List | Glossary On
Versions: 1 2 3 4 5 6 7 8 9 10 11 12 13 14 15 16 17 18 19 20 21 22 23 24 25 26 27 28 29 30 31 32 33 34 35 36 37 38 39 40 41 42 43 44 45 46 47 48 49 50
004
ASUS45 KBOU 201610
RWRCO

WEATHER ROUNDUP FOR COLORADO
NATIONAL WEATHER SERVICE PUEBLO CO
900 AM MST TUE FEB 20 2018

NOTE: "FAIR" INDICATES FEW OR NO CLOUDS BELOW 12000 FEET WITH NO
SIGNIFICANT WEATHER AND/OR OBSTRUCTIONS TO VISIBILITY.

COZ001>005-013-030-031-201700-
...NORTHWEST COLORADO...

CITY           SKY/WX    TMP DP  RH WIND       PRES   REMARKS
CRAIG          LGT SNOW   0  -5  79 W5        29.92R WCI -10
HAYDEN         SUNNY      3  -3  76 S3        29.91R
MEEKER         CLOUDY     5   0  79 CALM      29.91R HAZE
RABBIT EARS PA NOT AVBL
STEAMBOAT SPGS CLOUDY     1  -4  80 CALM      29.87R
WALDEN         FAIR       0  -8  71 SE5       29.77R WCI -10
$$

COZ006>008-011-201700-
...WEST CENTRAL VALLEYS...

CITY           SKY/WX    TMP DP  RH WIND       PRES   REMARKS
GRAND JUNCTION CLOUDY    23  18  81 CALM      29.96R
MONTROSE       FLURRIES  22  16  78 CALM      29.94S
EAGLE          CLOUDY    15   7  70 CALM      29.88R
RIFLE          CLOUDY    15  12  88 CALM      29.95R FOG
DELTA          NOT AVBL
NUCLA          FAIR      25  14  63 SW8       29.95R WCI  16
$$

COZ017>023-064>068-201700-
...SOUTHWEST COLORADO...

CITY           SKY/WX    TMP DP  RH WIND       PRES   REMARKS
DURANGO        SUNNY     16  12  84 NE5       29.92R WCI   9
CORTEZ         SUNNY     18  11  74 NE3       29.94R
PAGOSA SPRINGS PTSUNNY   17  10  72 S8        29.88R WCI   7
TELLURIDE      PTSUNNY    9  -2  59 CALM      29.80R
WOLF CREEK PAS CLOUDY    -4  -6  92 S21G36    29.71R WCI -28
$$

COZ009-010-012-014-032>034-037-058>063-201700-
...CENTRAL COLORADO...

CITY           SKY/WX    TMP DP  RH WIND       PRES   REMARKS
ASPEN          LGT SNOW  11   7  84 N5        29.78R VSB 1   WCI   3
BUENA VISTA    FAIR      19 -10  27 NW5       29.76R WCI  12
COPPER MTN     CLOUDY     1  -8  66 W14G22    29.57R HAZE    WCI -17
BERTHOUD PASS  CLOUDY    -9 -18  64 MISG      29.52R HAZE
COTTONWOOD PAS SUNNY     16 -11  29 SW13G28   29.67R WCI   2
GUNNISON       MOSUNNY   12   4  70 NE8       29.82R WCI   0
KREMMLING      CLOUDY    14   1  57 CALM      29.83R
LEADVILLE      LGT SNOW   6   0  76 N6        29.65R VSB 3/4 WCI  -4
MONARCH PASS     N/A     -2  -6  84 W30       29.68R WCI -29
SALIDA         FAIR      22   2  41 SW14      29.86R WCI   9
SUNLIGHT       LGT SNOW   1  -4  78 SW8       29.71S WCI -12
WILKERSON PASS SUNNY      1  -4  78 SW13G24   29.62R WCI -16
$$

COZ069>075-201700-
...SAN LUIS VALLEY/SANGRE DE CRISTO MOUNTAINS...

CITY           SKY/WX    TMP DP  RH WIND       PRES   REMARKS
ALAMOSA        SUNNY     22   7  52 S15G22    29.83R WCI   9
DEL NORTE      FAIR      18   0  44 W18       29.81R WCI   3
LA VETA PASS   SUNNY     12   1  62 S36G60    29.76R WCI -11
SAGUACHE       SUNNY     18   5  57 NW10      29.81R WCI   6
$$

COZ035-036-038>040-201700-
...NORTHERN COLORADO FRONT RANGE...

CITY           SKY/WX    TMP DP  RH WIND       PRES   REMARKS
DENVER INTL AP PTSUNNY    1  -6  72 E9        29.93R WCI -14
DMNS CITY PARK NOT AVBL
AURORA         PTSUNNY   -1  -6  81 E8        29.92R WCI -16
FRONT RANGE AP MOSUNNY    1  -2  85 S6        29.93R WCI -10
ERIE MUNI ARPT FAIR       3  -1  86 SE6       30.01R WCI  -8
BOULDER MUN AP FAIR       3   1  92 N3        29.93R FOG
CENTENNIAL     MOSUNNY   -1  -5  82 S8        29.88R WCI -15
BROOMFIELD     PTSUNNY    1  -2  85 E5        29.90R WCI  -8
LOVELAND       MOSUNNY   -1  -5  82 SW8       29.96R WCI -15
LONGMONT       FAIR       4   0  81 CALM      29.98R
$$

COZ041-046-047-076>085-087-088-201700-
...PIKES PEAK/PALMER DIVIDE AND SOUTHERN FOOTHILLS...

CITY           SKY/WX    TMP DP  RH WIND       PRES   REMARKS
COLO. SPRINGS  MOSUNNY    5   2  87 S6        29.88R FOG     WCI  -6
A. F. ACADEMY  PTSUNNY    5   0  78 S3        29.84R
SCHRIEVER AFB  NOT AVBL
CHEYENNE MTN   NOT AVBL
ELLICOTT         N/A    N/A N/A N/A W8          N/A
FALCON         FAIR       8   1  73 MISG      29.83R
FORT CARSON    CLOUDY     7   3  83 S7        29.88R BLWGSNOWWCI  -5
LIMON          SUNNY      1  -4  79 NW10      29.95R WCI -15
MONUMENT HILL  PTSUNNY   -4  -8  84 CALM      29.80R
CANON CITY     LGT SNOW  12   9  85 E5        29.92R VSB 1   WCI   4
WALSENBURG     CLOUDY    12  10  92 NE6       29.87R WCI   3
TRINIDAD       LGT SNOW  12  11  95 NE6       29.90R FOG     WCI   3
$$

COZ042>045-048>051-090-091-201700-
...NORTHEAST COLORADO...

CITY           SKY/WX    TMP DP  RH WIND       PRES   REMARKS
GREELEY ARPT   SUNNY     -6 -15  65 CALM      30.01R
AKRON          SUNNY      0  -6  76 W6        29.99R WCI -12
BURLINGTON     SUNNY      3  -5  69 N14       30.03R WCI -15
WRAY           FAIR      10   0  61 NW13      30.08R WCI  -5
YUMA           NOT AVBL
STERLING       FAIR       5  -6  61 NW12      30.04R WCI -11
HOLYOKE        FAIR       9  -2  61 NW18G24   30.06R WCI -10
FORT MORGAN    FAIR       4  -7  60 CALM      30.03R
$$

COZ086-089-092>099-201700-
...SOUTHEAST COLORADO...

CITY           SKY/WX    TMP DP  RH WIND       PRES   REMARKS
PUEBLO         CLOUDY    10   3  73 SE6       29.98R WCI   0
LA JUNTA       MOSUNNY   11   0  61 E7        30.05R WCI   0
LAMAR          MOSUNNY   11  -2  56 NE7       30.07R WCI   0
SPRINGFIELD      N/A     13   5  70 N15       29.99R WCI  -3
$$





USA.gov is the U.S. government's official web portal to all federal, state and local government web resources and services.